Ephrata, WA
on Friday, November 30, 2012

Friday
Previous Day Next Day
Daily Summary
 ActualAverageRecord
Temperature
Mean Temperature °F 31°F  
Max Temperature 42°F 38°F 56°F (1995)
Min Temperature 30°F 25°F 4°F (1985)
Degree Days
Heating Degree Days 29 34  
Month to date heating degree days 765 838  
Since 1 July heating degree days 1260 1419  
Cooling Degree Days 0 0  
Month to date cooling degree days 0 0  
Year to date cooling degree days 837 772  
Moisture
Dew Point 35°F   
Average Humidity 93    
Maximum Humidity 100    
Minimum Humidity 85    
Precipitation
Precipitation T in 0.04 in 0.66 in (1950)
Month to date precipitation 1.09 1.06  
Year to date precipitation 6.95 6.61  
Wind
Wind Speed 5 mph   
Max Wind Speed 10 mph   
Max Gust Speed 12 mph   
Visibility 6 miles   
Events Fog , Rain   

Key: T is trace of precipitation, MM is missing value
Source: NWS Daily Summary
Time(PST)TemperatureDew PointHumidity Pressure Visibility Wind DirectionWind SpeedGust SpeedPrecipitationEvents Conditions
12:53 AM 37.0°F 35.1°F 93% 29.57 in 10.0 miles North 4.6 mph - N/A   Mostly Cloudy
1:15 AM 37.4°F 35.6°F 93% 29.57 in 10.0 miles WNW 3.5 mph - N/A   Overcast
1:24 AM 39.2°F 33.8°F 81% 29.57 in 10.0 miles WNW 4.6 mph - N/A   Overcast
1:53 AM 36.0°F 35.1°F 97% 29.59 in 8.0 miles WSW 4.6 mph - N/A   Overcast
2:01 AM 35.6°F 35.6°F 100% 29.54 in 8.0 miles WNW 3.5 mph - N/A   Overcast
2:53 AM 37.0°F 35.1°F 93% 29.55 in 9.0 miles Calm Calm - 0.00 in Rain Light Rain
3:53 AM 33.1°F 32.0°F 96% 29.56 in 5.0 miles SW 4.6 mph - 0.00 in   Partly Cloudy
4:53 AM 30.9°F 30.0°F 96% 29.55 in 6.0 miles Calm Calm - N/A   Partly Cloudy
5:53 AM 30.9°F 30.0°F 96% 29.56 in 5.0 miles Calm Calm - N/A   Clear
6:10 AM 30.2°F 28.4°F 93% 29.52 in 2.5 miles North 3.5 mph - N/A   Scattered Clouds
6:13 AM 30.2°F 28.4°F 93% 29.52 in 1.0 miles North 3.5 mph - N/A   Mist
6:18 AM 30.2°F 28.4°F 93% 29.52 in 0.2 miles North 4.6 mph - N/A Fog Light Freezing Fog
6:31 AM 32.0°F 30.2°F 93% 29.51 in 0.2 miles North 4.6 mph - N/A Fog Fog
6:53 AM 32.0°F 30.9°F 96% 29.55 in 0.2 miles NNW 3.5 mph - N/A Fog Fog
6:59 AM 32.0°F 32.0°F 100% 29.52 in 0.5 miles Calm Calm - N/A Fog Fog
7:09 AM 32.0°F 32.0°F 100% 29.52 in 0.5 miles Calm Calm - N/A Fog Fog
7:30 AM 32.0°F 32.0°F 100% 29.52 in 1.0 miles Calm Calm - N/A   Overcast
7:36 AM 32.0°F 30.2°F 93% 29.52 in 2.0 miles Calm Calm - N/A   Overcast
7:49 AM 32.0°F 30.2°F 93% 29.52 in 3.0 miles WNW 3.5 mph - N/A   Overcast
7:53 AM 32.0°F 30.9°F 96% 29.55 in 4.0 miles West 4.6 mph - N/A   Overcast
8:12 AM 33.8°F 33.8°F 100% 29.52 in 7.0 miles Calm Calm - N/A   Overcast
8:53 AM 37.0°F 35.1°F 93% 29.56 in 10.0 miles WNW 3.5 mph - N/A   Overcast
9:53 AM 37.0°F 35.1°F 93% 29.57 in 7.0 miles SSE 3.5 mph - N/A   Scattered Clouds
10:53 AM 39.9°F 37.0°F 89% 29.57 in 10.0 miles South 5.8 mph - N/A   Clear
11:03 AM 39.2°F 37.4°F 93% 29.54 in 10.0 miles SSE 5.8 mph - N/A   Scattered Clouds
11:22 AM 39.2°F 37.4°F 93% 29.55 in 10.0 miles South 4.6 mph - N/A   Mostly Cloudy
11:53 AM 39.9°F 37.0°F 89% 29.56 in 9.0 miles Calm Calm - N/A   Overcast
12:53 PM 41.0°F 37.9°F 89% 29.57 in 8.0 miles South 4.6 mph - N/A   Overcast
1:53 PM 42.1°F 39.0°F 89% 29.59 in 8.0 miles SW 5.8 mph - N/A   Overcast
2:49 PM 41.0°F 39.2°F 93% 29.56 in 7.0 miles WSW 3.5 mph - N/A   Scattered Clouds
2:53 PM 41.0°F 39.0°F 93% 29.59 in 7.0 miles West 3.5 mph - N/A   Partly Cloudy
3:53 PM 39.0°F 37.0°F 93% 29.59 in 5.0 miles North 5.8 mph - N/A   Clear
4:36 PM 39.2°F 37.4°F 93% 29.56 in 5.0 miles NNE 5.8 mph - N/A   Partly Cloudy
4:53 PM 39.0°F 37.0°F 93% 29.59 in 5.0 miles North 5.8 mph - N/A   Clear
5:53 PM 39.0°F 37.9°F 96% 29.59 in 6.0 miles North 6.9 mph - N/A   Mostly Cloudy
7:53 PM 39.9°F 39.0°F 97% 29.58 in 6.0 miles North 5.8 mph - N/A   Overcast
8:53 PM 39.9°F 39.0°F 97% 29.56 in 5.0 miles North 6.9 mph - N/A   Overcast
9:53 PM 42.1°F 39.0°F 89% 29.56 in 6.0 miles NNE 5.8 mph - 0.00 in Rain Light Rain
10:53 PM 39.9°F 39.0°F 97% 29.55 in 5.0 miles North 4.6 mph - 0.00 in   Scattered Clouds
11:53 PM 39.0°F 37.9°F 96% 29.54 in 5.0 miles North 8.1 mph - N/A   Clear
Moon Phase
Nov. 30 Dec. 06 Dec. 13 Dec. 20 Dec. 28
Sunrise:07:23 AM (PST) Moon Rise:06:10 PM (PST)
Sunset:04:09 PM (PST) Moon Set:08:58 AM (PST)

Copyright © 2014 The Weather Underground, Inc.